DELTA 1 DEB

Satellite information

Favourite Embed

Satellite Type and Status

DEBRISIN ORBIT

Key statistics

Satellite DELTA 1 DEB at a glance.

Uptime

17406

Days in orbit

Revolutions

≈ 13.9

Per day

Orbit

SSO

Sun Synchronous Orbit

Inclination

98.9

Latest

Satellite identification and parameters

Extended collection of information and parameters for DELTA 1 DEB.

Object identification

Identified? True

Debris? True

Object name: DELTA 1 DEB

International designator: 1978-026S

Object number (NORAD): 12177

Object ID (CCSDS): 12177

Country: UNITED STATES OF AMERICA (US)

Current information (Y/N): Y

RCS size: SMALL

Orbital parameters

Period: 103.242 minutes

Inclination: 98.9365 deg

SMA: 7290.083 km

Apoapsis: 1024.045 km

Periapsis: 799.852 km

RAAN: 49.5224 deg

Eccentricy: 0.01537657

Argument of periapsis: 78.0033 deg

Mean anomaly: 294.4914 deg

Mean motion: 13.94774643 rev/day

Mean motion (dot): 0.00000462 rev/day2

B* drag term: 0.00034057469 1/REarth

Two-line elements (TLE)

Creation date: Oct. 28, 2025, 7:11 p.m.

Reference frame: TEME

Reference center: EARTH

Epoch: Oct. 28, 2025, 1:48 p.m. UTC

TLE line 0: 0 DELTA 1 DEB

TLE line 1: 1 12177U 78026S 25301.57528030 .00000462 00000-0 34057-3 0 9996

TLE line 2: 2 12177 98.9365 49.5224 0153766 78.0033 294.4914 13.94774643267584

Live tracking on map

Real-time ground track for satellite DELTA 1 DEB.

In-orbit conjunctions

A list of the most updated potential collisions computed for object DELTA 1 DEB.

Target Orbit TCA Probability of collision Miss distance Type
CZ-6A DEB LEO 2025-10-04 05:38:56 0.0001353481 543.0 (m) DEBRIS
SL-16 DEB LEO 2025-06-20 06:30:50 0.0004270657 92.0 (m) DEBRIS
CZ-6A DEB LEO 2024-11-29 08:42:17 0.0001045794 289.0 (m) DEBRIS

Associated space launch

Earth observation satellite

DELTA 1 DEB was lifted into orbit during the mission ‘Delta 2910 | Landsat 3’, on board a Delta 2910 space rocket.

The launch took place on March 5, 1978, 5:54 p.m. from Space Launch Complex 2W.

For more information about the launch, click the button.

Launch to space Delta 2910 | Landsat 3
Delta 2910 | Landsat 3

Agency: N/A

Status: Launch Successful

Launch date: March 5, 1978, 5:54 p.m. UTC

Rocket: Delta 2910

Launch pad: Space Launch Complex 2W

Location: Vandenberg SFB, CA, USA

...

Latest news about this satellite

There are no fresh news available about this satellite. Check back as we update our databases every day.


Newsletter sign-up

Weekly statistics, charts and insights to help you stay on top of the space industry.